[Iaude] MPEC B79: 2019 BE1 [a=2.83,e=0.65,i=0.6,H=24.6]

mpec at mpcdb1.cfa.harvard.edu mpec at mpcdb1.cfa.harvard.edu
Fri Jan 25 17:11:17 EST 2019


M.P.E.C. 2019-B79                                Issued 2019 Jan. 25, 22:07 UT
 
     The Minor Planet Electronic Circulars contain information on unusual
         minor planets and routine data on comets.  They are published
    on behalf of Division F of the International Astronomical Union by the
          Minor Planet Center, Smithsonian Astrophysical Observatory,
                          Cambridge, MA 02138, U.S.A.

             Prepared using the Tamkin Foundation Computer Network

                              MPC at CFA.HARVARD.EDU
            URL https://www.minorplanetcenter.net/    ISSN 1523-6714


                                   2019 BE1
 
Observations:
     K19B01E  C2019 01 05.27455601 56 53.387+07 34 54.94         21.4 GVEB079F51
     K19B01E  C2019 01 05.28782001 56 54.770+07 34 47.64         21.0 GVEB079F51
     K19B01E  C2019 01 05.30106801 56 56.167+07 34 39.60         21.1 GVEB079F51
     K19B01E* C2019 01 23.44599308 19 03.77 -10 30 39.5          16.36oVEB079T05
     K19B01E  C2019 01 23.44645108 19 05.40 -10 30 42.4          16.49oVEB079T05
     K19B01E  C2019 01 23.45405008 19 30.54 -10 31 21.9          16.62oVEB079T05
     K19B01E  C2019 01 23.45450708 19 32.02 -10 31 24.2          16.48oVEB079T05
     K19B01E  C2019 01 23.46250608 19 58.48 -10 32 05.6          16.50oVEB079T05
     K19B01E  C2019 01 24.42771609 11 19.53 -11 31 43.4          17.31oVEB079T05
     K19B01E  C2019 01 24.43705509 11 44.16 -11 32 04.9          17.84oVEB079T05
     K19B01E  C2019 01 24.44299009 12 00.38 -11 32 20.8          17.58oVEB079T05
     K19B01E KC2019 01 24.91587 09 33 07.14 -11 48 34.4                VEB079595
     K19B01E KC2019 01 24.92494 09 33 28.89 -11 48 48.3          17.4 GVEB079595
     K19B01E KC2019 01 24.92721 09 33 34.31 -11 48 51.3                VEB079595
     K19B01E KC2019 01 24.92800709 33 36.21 -11 48 50.1          17.8 GVEB079L01
     K19B01E KC2019 01 24.92947 09 33 39.74 -11 48 55.1          17.2 GVEB079595
     K19B01E KC2019 01 24.93037609 33 41.91 -11 48 53.5          17.6 GVEB079L01
     K19B01E KC2019 01 24.93225609 33 46.39 -11 48 56.4          17.9 GVEB079L01
     K19B01E KC2019 01 24.93473409 33 52.29 -11 49 00.1          18.0 GVEB079L01
     K19B01E KC2019 01 24.93532909 33 53.69 -11 49 00.8          17.9 GVEB079L01
     K19B01E KC2019 01 25.04411 09 38 09.32 -11 51 20.7          17.5 GVEB079K38
     K19B01E KC2019 01 25.05094 09 38 25.00 -11 51 27.3          17.2 GVEB079K38
     K19B01E KC2019 01 25.05213 09 38 27.77 -11 51 29.0                VEB079204
     K19B01E KC2019 01 25.05458 09 38 33.38 -11 51 31.6                VEB079204
     K19B01E KC2019 01 25.05701 09 38 38.97 -11 51 34.0                VEB079204
     K19B01E KC2019 01 25.05778 09 38 40.69 -11 51 34.2          17.7 GVEB079K38
     K19B01E KC2019 01 25.05945 09 38 44.54 -11 51 36.6                VEB079204
     K19B01E KC2019 01 25.06189 09 38 50.12 -11 51 39.0          17.6 GVEB079204
     K19B01E KC2019 01 25.06461 09 38 56.30 -11 51 41.5          17.5 GVEB079K38
     K19B01E KC2019 01 25.07144 09 39 11.91 -11 51 48.2          17.3 GVEB079K38
     K19B01E KC2019 01 25.07828 09 39 27.53 -11 51 54.4          17.4 GVEB079K38
     K19B01E  C2019 01 25.27972 09 47 34.22 -11 53 46.0          16.9 GVEB079I52
     K19B01E  C2019 01 25.27984 09 47 34.48 -11 53 46.0          17.3 GVEB079I52
     K19B01E  C2019 01 25.27997 09 47 34.78 -11 53 45.9          17.2 GVEB079I52
     K19B01E  C2019 01 25.28010 09 47 35.03 -11 53 46.1          17.0 GVEB079I52
 
Observer details:
204 Schiaparelli Observatory.  Observer L. Buzzi.  0.84-m f/3.5 reflector +
    CCD.
595 Farra dIsonzo.  Observers G. Ierman, E. Pettarin, F. Piani.  Measurers
    G. Ierman, E. Pettarin.  0.61-m f/4.5 reflector + CCD.
F51 Pan-STARRS 1, Haleakala.  Observers J. Bulger, K. Chambers, T. Lowe,
    E. Magnier, A. Schultz, M. Willman.  Measurers S. Chastel, M. Huber,
    Y. Ramanjooloo, R. Wainscoat, R. Weryk.  1.8-m Ritchey-Chretien + CCD.
I52 Steward Observatory, Mt. Lemmon Station.  Observer B. M. Africano.
    Measurers B. M. Africano, E. J. Christensen, G. A. Farneth, D. C. Fuls,
    A. R. Gibbs, A. D. Grauer, H. Groeller, R. A. Kowalski, S. M. Larson,
    G. J. Leonard, T. A. Pruyne, R. L. Seaman, F. C. Shelly.  1.0-m reflector
    + CCD.
K38 M57 Observatory, Saltrio.  Observer G. Baj.  0.3-m f/5.5 Ritchey-Chretien
    + CCD.
L01 Visnjan Observatory, Tican.  Observer K. Korlevic.  1.0-m f/2.9 reflector
    + CCD.
T05 ATLAS-HKO, Haleakala.  Observers L. Denneau, J. Tonry, A. Heinze,
    H. Weiland, H. Flewelling.  Measurers L. Denneau, J. Tonry, A. Heinze,
    H. Weiland, H. Flewelling, B. Stalder, A. Fitzsimmons, D. Young,
    N. Erasmus.  0.5-m reflector + CCD.
 
Orbital elements:
2019 BE1                                                 Earth MOID = 0.0144 AU
Epoch 2019 Apr. 27.0 TT = JDT 2458600.5                 MPC
M  20.69333              (2000.0)            P               Q
n   0.20648556     Peri.  230.17485     -0.41492348     -0.90980996
a   2.8349338      Node   244.34191     +0.83785843     -0.37813551
e   0.6488815      Incl.    0.58375     +0.35472773     -0.17105371
P   4.77           H   24.6           G   0.15           U   6
Residuals in seconds of arc
190105 F51  0.1+  0.2-    190124 595  0.3+  0.3-    190125 204  0.1+  0.1-
190105 F51  0.0   0.2+    190124 595  0.2+  0.1+    190125 K38  0.2+  0.5+
190105 F51  0.2-  0.0     190124 L01  0.6-  0.1+    190125 204  0.2-  0.2-
190123 T05  0.9-  0.0     190124 595  0.6+  0.3-    190125 204  0.2-  0.1-
190123 T05  0.8+  0.5-    190124 L01  0.0   0.2+    190125 K38  0.1-  0.1+
190123 T05  0.3+  0.2-    190124 L01  0.0   0.1+    190125 K38  0.0   0.1+
190123 T05  0.2-  0.1-    190124 L01  0.1-  0.1+    190125 K38  0.3+  0.4+
190123 T05  0.3-  0.0     190124 L01  0.4-  0.2+    190125 I52  0.1-  0.2-
190124 T05  0.4-  0.0     190125 K38  0.2-  0.3-    190125 I52  0.0   0.1-
190124 T05 (5.2-  1.8+)   190125 K38  0.1-  0.3+    190125 I52  0.3+  0.2+
190124 T05  0.8+  0.4+    190125 204  0.2-  0.1-    190125 I52  0.1-  0.1+
190124 595  0.3+  0.2-    190125 204  0.3-  0.2-

Ephemeris:
2019 BE1                 a,e,i = 2.83, 0.65, 1                   q = 0.9954
Date    TT    R. A. (2000) Decl.     Delta      r     Elong.  Phase     V
2018 12 26    01 43 27.7 +08 50 07   0.1252  1.0393   113.3    60.4    22.3
...
2019 01 10    02 13 10.3 +06 40 06   0.05957 0.9996   104.1    72.6    21.0
...
2019 01 18    03 45 51.9 +01 48 43   0.02602 0.9954   115.9    62.8    18.9
...
2019 01 24    08 49 47.6 -11 06 50   0.01875 1.0004   148.8    30.7    17.3
2019 01 25    09 36 21.5 -11 44 42   0.02130 1.0018   144.7    34.6    17.7
2019 01 26    10 11 55.2 -11 53 34   0.02451 1.0035   140.5    38.6    18.1
...
2019 02 01    11 45 05.9 -10 44 01   0.04922 1.0174   129.7    48.2    19.9
...
2019 02 09    12 16 23.4 -09 22 54   0.08579 1.0456   131.8    44.7    21.1
...
2019 02 24    12 25 55.5 -07 17 36   0.1583  1.1239   145.8    29.7    22.1

A. U. Tomatic                (C) Copyright 2019 MPC           M.P.E.C. 2019-B79



More information about the Iaude mailing list